User: anonymous   Login
Location: Hungerford
(51.4167°N, 1.5167°W)
Time: 11:55:07
(UTC+00:00)
Language:

Spot 2 Rocket - Orbit

View from above orbital plane
View from above orbital plane
View from above satellite
View from above satellite

Ground track
Ground track

The orbit data is extracted from the following two-line orbital elements,

1 20443U 90005H   20329.88655838 +.00000034 +00000-0 +25942-4 0  9997
2 20443 098.5577 031.2915 0009770 220.2708 139.7756 14.38106096615177
Epoch (UTC): 24 November 2020 21:16:38
Eccentricity: 0.0009770
inclination: 98.5577°
perigee height: 758 km
apogee height: 772 km
right ascension of ascending node: 31.2915°
argument of perigee: 220.2708°
revolutions per day: 14.38106096
mean anomaly at epoch: 139.7756°
orbit number at epoch: 61517

The dashed part of the orbit path shows where the satellite is in the earth's shadow,  

DLR